Location: Broletto
(44.6000°N, 10.5833°E)
Time: 07:42:39
(UTC+00:00)

Lacrosse 5 rocket - Pass Details

Date: 18 April 2021
Orbit: 461 x 634 km, 57.0° (Epoch: 06 May)

Event Time Altitude Azimuth Distance (km) Brightness Sun altitude
Rises 21:06:11 0° 306° (NW) 2,744 6.0 -26.9°
Reaches altitude 10° 21:09:07 10° 328° (NNW) 1,886 5.0 -27.2°
Maximum altitude 21:11:53 17° 8° (N) 1,540 4.1 -27.5°
Enters shadow 21:14:17 12° 43° (NE) 1,843 4.1 -27.7°
